EW5657 Weather Reports


time (UTC)temp
C
wind
direction
speed
KPH
gust
KPH
rain 1hr
cm
rain 24hr
cm
rain mn
cm
humidity
%
barometer
mb
20260510083017 15 235 0.0 4.8 0.00 0.03 0.03 80 1031.7
20260510082522 15 235 1.6 3.2 0.00 0.03 0.03 78 1031.7
20260510082518 15 235 0.0 3.2 0.00 0.03 0.03 79 1031.7
20260510081516 15 235 0.0 3.2 0.00 0.03 0.03 77 1031.6
20260510081018 15 235 0.0 3.2 0.00 0.03 0.03 77 1031.6
20260510080516 15 235 0.0 4.8 0.00 0.03 0.03 76 1031.6
20260510080015 15 235 0.0 4.8 0.00 0.03 0.03 76 1031.5
20260510075516 15 235 0.0 1.6 0.00 0.03 0.03 75 1031.5
20260510075018 15 235 0.0 1.6 0.00 0.03 0.03 74 1031.3
20260510075012 15 235 0.0 1.6 0.00 0.03 0.03 75 1031.4
20260510074013 15 235 0.0 1.6 0.00 0.03 0.03 74 1031.3
20260510073512 15 235 0.0 1.6 0.00 0.03 0.03 74 1031.3
20260510073012 15 235 0.0 1.6 0.00 0.03 0.03 73 1031.3
20260510072511 15 235 0.0 1.6 0.00 0.03 0.03 73 1031.2
20260510072012 15 235 0.0 1.6 0.00 0.03 0.03 72 1031.3
20260510071511 16 235 0.0 1.6 0.00 0.03 0.03 72 1031.2
20260510071011 16 235 0.0 1.6 0.00 0.03 0.03 71 1031.1
20260510070508 16 235 0.0 1.6 0.00 0.03 0.03 71 1031.1
20260510070008 16 235 0.0 1.6 0.00 0.03 0.03 71 1031.0
20260510065516 16 235 0.0 3.2 0.00 0.03 0.03 70 1031.0
20260510065510 16 235 0.0 1.6 0.00 0.03 0.03 70 1031.0
20260510064510 16 235 0.0 4.8 0.00 0.03 0.03 70 1030.9
20260510064008 16 235 1.6 6.4 0.00 0.03 0.03 69 1030.9
20260510063507 16 235 1.6 6.4 0.00 0.03 0.03 69 1030.9
20260510063006 16 237 1.6 3.2 0.00 0.03 0.03 70 1030.9
20260510062506 16 237 1.6 6.4 0.00 0.03 0.03 70 1030.8
20260510062007 16 237 3.2 12.9 0.00 0.03 0.03 69 1030.8
20260510061507 16 241 1.6 12.9 0.00 0.03 0.03 69 1030.8
20260510061006 17 216 1.6 6.4 0.00 0.03 0.03 68 1030.8
20260510060508 17 216 1.6 8.0 0.00 0.03 0.03 69 1030.8
20260510060012 17 226 1.6 6.4 0.00 0.03 0.03 69 1030.8
20260510060006 17 229 1.6 8.0 0.00 0.03 0.03 69 1030.8
20260510055006 17 223 1.6 6.4 0.00 0.03 0.03 68 1030.8
20260510054509 17 230 1.6 4.8 0.00 0.03 0.03 68 1030.8
20260510054505 17 217 1.6 6.4 0.00 0.03 0.03 67 1030.8
20260510053504 17 230 0.0 4.8 0.00 0.03 0.03 68 1030.8
20260510053005 17 230 0.0 6.4 0.00 0.03 0.03 68 1030.8
20260510052510 17 230 1.6 6.4 0.00 0.03 0.03 68 1030.8
20260510052505 17 230 1.6 6.4 0.00 0.03 0.03 68 1030.8
20260510051512 16 233 1.6 9.7 0.00 0.03 0.03 70 1030.7
20260510051505 17 231 1.6 6.4 0.00 0.03 0.03 69 1030.8
20260510050511 16 204 0.0 3.2 0.00 0.03 0.03 69 1030.7
20260510050505 16 233 1.6 9.7 0.00 0.03 0.03 69 1030.7
20260510045503 16 204 0.0 3.2 0.00 0.03 0.03 70 1030.7
20260510045002 16 204 0.0 4.8 0.00 0.03 0.03 70 1030.7
20260510044501 16 204 1.6 6.4 0.00 0.03 0.03 69 1030.7
20260510044002 16 204 1.6 6.4 0.00 0.03 0.03 67 1030.8
20260510043502 16 180 1.6 8.0 0.00 0.03 0.03 67 1030.7
20260510043002 16 180 3.2 9.7 0.00 0.03 0.03 67 1030.8
20260510042502 16 199 3.2 9.7 0.00 0.03 0.03 67 1030.7
20260510042002 16 203 3.2 6.4 0.00 0.03 0.03 68 1030.7
20260510041502 16 202 1.6 6.4 0.00 0.03 0.03 68 1030.7
20260510041007 16 207 1.6 6.4 0.00 0.03 0.03 67 1030.8
20260510041001 16 208 3.2 6.4 0.00 0.03 0.03 69 1030.8
20260510040001 16 210 1.6 6.4 0.00 0.03 0.03 68 1030.9
20260510035500 16 210 1.6 4.8 0.00 0.03 0.03 69 1030.9
20260510035001 16 209 1.6 4.8 0.00 0.03 0.03 68 1031.0
20260510034459 16 202 1.6 9.7 0.00 0.03 0.03 68 1030.9
20260510034000 16 202 3.2 9.7 0.00 0.03 0.03 68 1031.0
20260510033502 16 210 3.2 8.0 0.00 0.03 0.03 68 1031.0
20260510033000 16 210 3.2 8.0 0.00 0.03 0.03 69 1031.0
20260510032501 16 228 1.6 8.0 0.00 0.03 0.03 68 1031.0
20260510032004 16 220 1.6 8.0 0.00 0.03 0.03 69 1031.0
20260510031958 16 189 1.6 6.4 0.00 0.03 0.03 70 1031.0
20260510031007 16 193 3.2 9.7 0.00 0.03 0.03 69 1031.1
20260510030957 16 189 1.6 6.4 0.00 0.03 0.03 69 1031.0
20260510030457 16 193 1.6 6.4 0.00 0.03 0.03 70 1031.1
20260510025502 16 212 3.2 8.0 0.00 0.03 0.03 69 1031.1
20260510025456 16 165 3.2 9.7 0.00 0.03 0.03 69 1031.1
20260510024455 16 216 3.2 8.0 0.00 0.03 0.03 70 1031.3
20260510024001 16 216 3.2 6.4 0.00 0.03 0.03 72 1031.4
20260510023955 16 216 1.6 6.4 0.00 0.03 0.03 71 1031.3
20260510022954 16 217 3.2 6.4 0.00 0.03 0.03 72 1031.4
20260510022452 16 193 3.2 6.4 0.00 0.03 0.03 72 1031.5
20260510021957 16 190 1.6 6.4 0.00 0.03 0.03 72 1031.5
20260510021953 16 192 3.2 6.4 0.00 0.03 0.03 71 1031.6
20260510021617 16 199 1.6 6.4 0.00 0.03 0.03 73 1031.7
20260510020952 16 185 1.6 6.4 0.00 0.03 0.03 73 1031.7
20260510015951 16 199 1.6 6.4 0.00 0.03 0.03 73 1031.8
20260510015453 16 207 1.6 6.4 0.00 0.03 0.03 74 1031.9
20260510014952 16 207 3.2 9.7 0.00 0.03 0.03 75 1031.9
20260510014453 15 205 3.2 9.7 0.00 0.03 0.03 76 1032.0
20260510013951 15 207 1.6 6.4 0.00 0.03 0.03 76 1032.0
20260510013452 15 208 1.6 8.0 0.00 0.03 0.03 78 1032.1
20260510012951 15 209 1.6 8.0 0.00 0.03 0.03 79 1032.2
20260510012453 15 212 1.6 8.0 0.00 0.03 0.03 80 1032.2
20260510011951 15 219 1.6 8.0 0.00 0.03 0.03 82 1032.2
20260510011451 15 221 1.6 8.0 0.00 0.03 0.03 83 1032.2
20260510010952 15 277 0.0 6.4 0.00 0.03 0.03 85 1032.2
20260510010453 15 277 0.0 6.4 0.00 0.03 0.03 85 1032.2
20260510005951 15 278 0.0 4.8 0.00 0.03 0.03 86 1032.2
20260510005453 15 278 0.0 3.2 0.00 0.03 0.03 87 1032.2
20260510004951 15 278 1.6 6.4 0.00 0.03 0.03 87 1032.2
20260510004453 15 278 1.6 6.4 0.00 0.03 0.03 87 1032.2
20260510003953 15 278 0.0 6.4 0.00 0.03 0.03 88 1032.2
20260510003456 15 279 0.0 4.8 0.00 0.03 0.03 88 1032.2
20260510002957 15 279 0.0 9.7 0.00 0.03 0.03 88 1032.2
20260510002951 15 279 1.6 9.7 0.00 0.03 0.03 88 1032.3
20260510001952 15 268 0.0 4.8 0.00 0.03 0.03 88 1032.2
20260510001450 15 268 1.6 4.8 0.00 0.03 0.03 89 1032.2
20260510000951 15 268 1.6 9.7 0.00 0.03 0.03 89 1032.2
20260510000448 15 270 1.6 9.7 0.00 0.03 0.03 89 1032.1
20260509235947 15 264 0.0 4.8 0.00 0.03 0.03 89 1032.2
20260509235446 15 264 0.0 3.2 0.00 0.03 0.03 89 1032.1
20260509234949 15 264 1.6 6.4 0.00 0.03 0.03 89 1032.1
20260509234447 14 264 1.6 6.4 0.00 0.03 0.03 89 1032.1
20260509233947 14 262 1.6 6.4 0.00 0.03 0.03 89 1032.1
20260509233447 14 260 1.6 6.4 0.00 0.03 0.03 89 1032.0
20260509232946 14 259 1.6 4.8 0.00 0.03 0.03 90 1032.1
20260509232445 14 259 1.6 4.8 0.00 0.03 0.03 90 1032.1
20260509231945 14 259 1.6 4.8 0.00 0.03 0.03 90 1032.0
20260509231445 14 258 1.6 4.8 0.00 0.03 0.03 90 1032.0
20260509230955 14 258 1.6 3.2 0.00 0.03 0.03 91 1032.0
20260509230947 14 258 1.6 4.8 0.00 0.03 0.03 90 1032.0
20260509225949 13 258 0.0 3.2 0.00 0.03 0.03 91 1032.0
20260509225445 13 258 0.0 0.0 0.00 0.03 0.03 91 1032.0
20260509224946 13 258 0.0 1.6 0.00 0.03 0.03 91 1032.0
20260509224445 13 258 0.0 1.6 0.00 0.03 0.03 91 1032.0
20260509223944 13 258 0.0 1.6 0.00 0.03 0.03 91 1031.8
20260509223449 13 258 0.0 4.8 0.00 0.03 0.03 91 1031.8
20260509223443 13 258 0.0 4.8 0.00 0.03 0.03 91 1031.8
20260509222444 13 258 0.0 1.6 0.00 0.03 0.03 91 1031.8
20260509221944 13 258 0.0 3.2 0.00 0.03 0.03 91 1031.8
20260509221443 13 258 0.0 3.2 0.00 0.03 0.03 91 1031.8
20260509220943 13 258 0.0 1.6 0.00 0.03 0.03 91 1031.7
20260509220443 13 258 0.0 0.0 0.00 0.03 0.03 91 1031.6
20260509215943 13 258 0.0 0.0 0.00 0.03 0.03 91 1031.6
20260509215443 13 258 0.0 0.0 0.00 0.03 0.03 91 1031.5
20260509214945 13 258 0.0 0.0 0.00 0.03 0.03 91 1031.4
20260509214442 13 258 0.0 0.0 0.00 0.03 0.03 91 1031.3
20260509213943 13 258 0.0 0.0 0.00 0.03 0.03 91 1031.4
20260509213443 13 258 0.0 3.2 0.00 0.03 0.03 91 1031.2
20260509212948 13 258 0.0 1.6 0.00 0.03 0.03 91 1031.0
20260509212941 13 258 0.0 3.2 0.00 0.03 0.03 91 1031.2
20260509212442 13 258 0.0 0.0 0.00 0.03 0.03 91 1031.1
20260509211440 13 258 0.0 1.6 0.00 0.03 0.03 91 1031.0
20260509210941 13 258 0.0 0.0 0.00 0.03 0.03 91 1030.9
20260509210443 13 258 0.0 0.0 0.00 0.03 0.03 91 1030.9
20260509205940 13 258 0.0 0.0 0.00 0.03 0.03 91 1030.8
20260509205439 13 258 0.0 0.0 0.00 0.03 0.03 91 1030.7
20260509204939 13 258 0.0 0.0 0.00 0.03 0.03 91 1030.7
20260509204440 13 258 0.0 0.0 0.00 0.03 0.03 91 1030.7
20260509203940 13 258 0.0 0.0 0.00 0.03 0.03 91 1030.7
20260509203440 13 258 0.0 0.0 0.00 0.03 0.03 91 1030.6
20260509202940 13 258 0.0 3.2 0.00 0.05 0.03 91 1030.6
20260509202440 13 258 0.0 3.2 0.00 0.05 0.03 91 1030.5
20260509201940 13 258 0.0 3.2 0.00 0.05 0.03 91 1030.5
20260509201440 13 258 0.0 0.0 0.00 0.05 0.03 91 1030.5
20260509200938 13 258 0.0 0.0 0.00 0.05 0.03 92 1030.5
20260509200445 13 258 0.0 1.6 0.00 0.05 0.03 92 1030.3
20260509200437 13 258 0.0 0.0 0.00 0.05 0.03 91 1030.3
20260509195936 13 258 0.0 1.6 0.00 0.05 0.03 91 1030.3
20260509195604 13 258 0.0 1.6 0.00 0.05 0.03 92 1030.2
20260509194439 13 258 0.0 3.2 0.00 0.05 0.03 92 1030.2
20260509193936 13 258 0.0 4.8 0.00 0.05 0.03 92 1030.1
20260509193436 13 258 0.0 4.8 0.00 0.05 0.03 92 1030.0
20260509192937 13 258 0.0 1.6 0.00 0.05 0.03 92 1030.1
20260509192440 13 258 0.0 1.6 0.00 0.05 0.03 92 1030.0
20260509192436 13 258 0.0 1.6 0.00 0.05 0.03 92 1030.0
20260509191438 13 258 0.0 3.2 0.00 0.05 0.03 92 1029.8
20260509191432 13 258 0.0 3.2 0.00 0.05 0.03 92 1029.9
20260509191057 13 258 0.0 6.4 0.00 0.05 0.03 92 1029.8
20260509190434 13 258 0.0 6.4 0.00 0.05 0.03 92 1029.9
20260509185430 13 262 0.0 1.6 0.00 0.05 0.03 93 1029.7
20260509184931 13 262 0.0 1.6 0.00 0.05 0.03 93 1029.7
20260509184436 13 262 0.0 3.2 0.00 0.05 0.03 93 1029.6
20260509184431 13 262 0.0 1.6 0.00 0.05 0.03 93 1029.6
20260509183433 13 262 0.0 3.2 0.00 0.05 0.03 92 1029.6
20260509182931 13 262 0.0 3.2 0.00 0.05 0.03 93 1029.5
20260509182430 13 262 0.0 3.2 0.00 0.05 0.03 93 1029.5
20260509181930 13 262 0.0 3.2 0.00 0.05 0.03 93 1029.4
20260509181436 13 262 0.0 4.8 0.00 0.05 0.03 93 1029.3
20260509181430 13 262 0.0 1.6 0.00 0.05 0.03 92 1029.4
20260509181055 13 262 0.0 4.8 0.00 0.05 0.03 93 1029.3
20260509175930 13 263 1.6 4.8 0.00 0.05 0.03 92 1029.3
20260509175438 13 264 1.6 9.7 0.00 0.05 0.03 93 1029.3
20260509175432 13 263 1.6 4.8 0.00 0.05 0.03 92 1029.3
20260509175058 13 268 1.6 9.7 0.00 0.05 0.03 93 1029.3
20260509174600 13 202 0.0 3.2 0.03 0.05 0.03 93 1029.3
20260509173431 13 202 0.0 3.2 0.03 0.05 0.03 93 1029.4
20260509172930 13 202 1.6 4.8 0.03 0.05 0.03 93 1029.3
20260509172430 13 202 1.6 4.8 0.03 0.05 0.03 92 1029.3
20260509171930 13 202 1.6 6.4 0.03 0.05 0.03 93 1029.3
20260509171430 13 202 1.6 6.4 0.03 0.05 0.03 93 1029.3
20260509170936 13 199 0.0 6.4 0.03 0.05 0.03 93 1029.4
20260509170930 13 199 1.6 4.8 0.03 0.05 0.03 93 1029.3
20260509165930 13 195 0.0 6.4 0.03 0.08 0.03 92 1029.4
20260509165431 13 195 0.0 6.4 0.03 0.08 0.03 92 1029.5
20260509164931 13 195 0.0 6.4 0.03 0.08 0.03 92 1029.4
20260509164429 13 199 1.6 6.4 0.03 0.08 0.03 92 1029.4
20260509163930 14 198 1.6 8.0 0.00 0.05 0.00 92 1029.5
20260509163427 14 197 1.6 8.0 0.00 0.05 0.00 92 1029.5
20260509162932 14 212 3.2 8.0 0.00 0.05 0.00 92 1029.5
20260509162927 14 204 1.6 8.0 0.00 0.05 0.00 92 1029.5
20260509161929 14 212 1.6 8.0 0.00 0.05 0.00 92 1029.5
20260509161431 14 227 1.6 6.4 0.00 0.05 0.00 91 1029.6
20260509160928 14 175 0.0 4.8 0.00 0.05 0.00 91 1029.7
20260509155926 14 168 1.6 8.0 0.00 0.05 0.00 91 1029.6
20260509155428 14 149 0.0 3.2 0.00 0.05 0.00 91 1029.6
20260509154923 14 149 0.0 3.2 0.00 0.05 0.00 91 1029.6
20260509154422 14 149 1.6 8.0 0.00 0.05 0.00 90 1029.5
20260509153928 14 147 1.6 11.3 0.00 0.05 0.00 90 1029.6
20260509153923 14 149 1.6 8.0 0.00 0.05 0.00 90 1029.6
20260509152920 14 193 3.2 11.3 0.00 0.05 0.00 90 1029.7
20260509152426 14 209 1.6 6.4 0.00 0.05 0.00 90 1029.6
20260509152420 14 199 1.6 6.4 0.00 0.05 0.00 90 1029.7
20260509151420 14 212 1.6 9.7 0.00 0.05 0.00 90 1029.6
20260509150920 14 220 3.2 9.7 0.00 0.05 0.00 89 1029.6
20260509150420 14 204 1.6 12.9 0.00 0.05 0.00 89 1029.6
20260509145920 14 204 1.6 12.9 0.00 0.05 0.00 89 1029.6
20260509145417 14 175 1.6 8.0 0.00 0.05 0.00 89 1029.6
20260509144920 14 156 1.6 8.0 0.00 0.05 0.00 90 1029.5
20260509144418 14 155 1.6 8.0 0.00 0.05 0.00 90 1029.6
20260509143920 14 195 1.6 8.0 0.00 0.05 0.00 90 1029.6
20260509143419 14 185 1.6 8.0 0.00 0.05 0.00 90 1029.6
20260509142923 14 202 1.6 6.4 0.00 0.05 0.00 90 1029.7
20260509142917 14 185 1.6 8.0 0.00 0.05 0.00 90 1029.7
20260509141920 14 201 1.6 6.4 0.00 0.05 0.00 90 1029.7
20260509141419 14 206 1.6 6.4 0.00 0.05 0.00 91 1029.6
20260509140919 14 204 0.0 6.4 0.00 0.05 0.00 91 1029.7
20260509140415 14 211 0.0 6.4 0.00 0.05 0.00 91 1029.7
20260509135916 14 211 0.0 6.4 0.00 0.05 0.05 91 1029.7
20260509135415 14 212 0.0 6.4 0.00 0.05 0.05 91 1029.7
20260509134917 14 212 0.0 6.4 0.00 0.05 0.05 91 1029.6
20260509134417 14 216 0.0 4.8 0.00 0.05 0.05 91 1029.6
20260509133914 14 216 0.0 4.8 0.00 0.05 0.05 91 1029.6
20260509133415 14 216 0.0 4.8 0.00 0.05 0.05 91 1029.5
20260509132916 14 216 0.0 4.8 0.00 0.05 0.05 91 1029.6
20260509132417 14 217 1.6 6.4 0.00 0.05 0.05 91 1029.7
20260509131922 14 219 1.6 9.7 0.00 0.05 0.05 91 1029.7
20260509131917 14 218 1.6 6.4 0.00 0.05 0.05 91 1029.7
20260509130911 14 220 1.6 9.7 0.00 0.05 0.05 91 1029.7
20260509130413 14 221 0.0 4.8 0.00 0.05 0.05 91 1029.7
20260509125910 14 221 0.0 4.8 0.00 0.05 0.05 91 1029.7
20260509125410 14 213 0.0 0.0 0.00 0.05 0.05 91 1029.7
20260509124916 14 214 0.0 1.6 0.00 0.05 0.05 90 1029.8
20260509124910 14 214 0.0 1.6 0.00 0.05 0.05 90 1029.7
20260509123913 14 213 0.0 4.8 0.00 0.05 0.05 90 1029.8
20260509123411 14 214 0.0 4.8 0.00 0.05 0.05 90 1029.7
20260509122913 14 214 1.6 9.7 0.00 0.05 0.05 90 1029.7
20260509122411 14 218 3.2 14.5 0.00 0.05 0.05 90 1029.8
20260509121914 14 185 1.6 14.5 0.00 0.05 0.05 90 1029.7
20260509121410 14 206 1.6 8.0 0.00 0.05 0.05 90 1029.8
20260509120909 15 207 1.6 8.0 0.00 0.05 0.05 90 1029.8
20260509120404 15 194 1.6 9.7 0.00 0.05 0.05 90 1029.8
20260509115906 14 193 1.6 9.7 0.00 0.05 0.05 89 1029.8
20260509115402 14 180 1.6 8.0 0.00 0.05 0.05 89 1029.7
20260509114904 14 175 1.6 8.0 0.00 0.05 0.05 90 1029.6
20260509114403 14 202 1.6 4.8 0.00 0.05 0.05 90 1029.6
20260509113909 14 193 0.0 4.8 0.00 0.05 0.05 90 1029.5
20260509113903 14 193 0.0 4.8 0.00 0.05 0.05 90 1029.5
20260509112903 14 194 0.0 3.2 0.00 0.05 0.05 90 1029.5
20260509112408 14 194 1.6 4.8 0.00 0.05 0.05 90 1029.4
20260509112403 14 194 1.6 4.8 0.00 0.05 0.05 90 1029.5
20260509111403 14 193 0.0 3.2 0.00 0.05 0.05 90 1029.4
20260509110901 14 193 0.0 8.0 0.00 0.05 0.05 90 1029.4
20260509110403 14 193 1.6 8.0 0.00 0.05 0.05 91 1029.3
20260509105903 14 175 0.0 6.4 0.00 0.05 0.05 91 1029.4
20260509105402 13 171 0.0 1.6 0.00 0.05 0.05 90 1029.3
20260509104902 13 171 0.0 0.0 0.00 0.05 0.05 91 1029.3
20260509104401 13 171 0.0 0.0 0.00 0.05 0.05 91 1029.3
20260509103901 13 171 0.0 0.0 0.00 0.05 0.05 91 1029.2
20260509103408 13 171 0.0 3.2 0.00 0.05 0.05 91 1029.2
20260509103402 13 171 0.0 0.0 0.00 0.05 0.05 91 1029.3
20260509102358 13 171 0.0 3.2 0.00 0.05 0.05 91 1029.2
20260509101900 13 171 0.0 3.2 0.00 0.05 0.05 91 1029.2
20260509101359 13 171 0.0 1.6 0.00 0.05 0.05 91 1029.2
20260509100904 13 171 0.0 9.7 0.00 0.05 0.05 91 1029.2
20260509100859 13 171 0.0 9.7 0.00 0.05 0.05 91 1029.2
20260509095858 13 185 0.0 0.0 0.00 0.05 0.05 90 1029.2
20260509095404 13 185 0.0 1.6 0.00 0.05 0.05 90 1029.2
20260509095400 13 185 0.0 1.6 0.00 0.05 0.05 90 1029.2
20260509094405 13 185 0.0 0.0 0.00 0.05 0.05 90 1029.2
20260509094401 13 185 0.0 1.6 0.00 0.05 0.05 90 1029.2
20260509093356 13 185 0.0 3.2 0.00 0.05 0.05 90 1029.2
20260509092857 13 185 0.0 3.2 0.00 0.05 0.05 90 1029.2
20260509092356 13 185 0.0 3.2 0.00 0.05 0.05 90 1029.1
20260509091903 13 185 0.0 3.2 0.00 0.05 0.05 89 1028.9
20260509091858 13 185 0.0 1.6 0.00 0.05 0.05 89 1029.0
20260509090905 14 185 0.0 4.8 0.00 0.05 0.05 89 1028.9
20260509090857 13 185 0.0 3.2 0.00 0.05 0.05 89 1029.0
20260509090359 13 185 0.0 3.2 0.00 0.05 0.05 89 1028.9
20260509085358 14 185 0.0 4.8 0.00 0.05 0.05 89 1028.9
20260509085020 14 185 0.0 1.6 0.00 0.05 0.05 89 1028.7
20260509084900 14 185 0.0 3.2 0.00 0.05 0.05 89 1028.9
20260509084856 14 185 0.0 3.2 0.00 0.05 0.05 89 1028.7
20260509083356 14 185 0.0 6.4 0.00 0.05 0.05 88 1028.7